Cloud_Cover
0 0 0 0 0 0 0 0 0 0 0 0 0 0 0 0 0 0 0 4 94 12 3 0 3 5 5 1 1 5 2 0 0 0 0 0 0 1 5 2 3 15 5 67
0 0 0 0 0 0 0 0 0 0 0 0 0 0 0 0 0 0 3 5 27 14 0 0 0 4 5 1 5 46 4 0 0 0 0 0 0 10 83 34 1 5 4 10
0 0 0 0 0 0 0 0 0 0 0 0 0 0 0 0 0 0 4 5 5 4 0 0 0 4 5 5 5 24 5 1 4 0 0 6 14 60 100 27 51 28 18 56
0 0 0 0 0 0 0 0 0 0 0 0 0 0 0 0 0 0 3 0 4 5 5 0 0 2 13 92 63 100 27 5 3 0 0 3 8 100 100 100 100 78 7 22
0 0 0 0 0 0 0 0 0 0 0 0 0 0 0 0 0 4 5 5 0 0 1 0 0 0 60 98 78 54 5 2 4 0 0 22 20 59 100 37 45 100 96 49
0 0 0 0 0 0 0 26 38 91 92 3 0 0 0 0 0 4 27 5 3 4 2 5 0 2 21 8 5 5 3 5 3 0 0 0 39 14 100 100 99 100 100 100
0 0 0 0 0 30 26 100 100 100 100 38 0 0 0 0 0 0 1 2 4 5 5 5 5 0 2 0 32 10 4 4 0 0 0 0 68 16 50 100 43 98 100 100
0 0 0 0 0 82 100 100 100 100 100 68 0 0 0 0 0 0 0 0 0 5 5 43 15 0 13 50 5 5 5 0 0 0 3 0 2 13 0 57 5 100 88 100
0 0 0 0 92 29 98 100 100 98 100 48 98 0 0 0 0 0 0 0 0 4 33 100 24 0 20 11 5 5 5 0 0 5 2 0 0 0 5 5 4 5 25 19
0 0 1 1 21 100 96 68 17 41 29 100 15 0 0 0 0 0 0 0 0 0 7 40 5 5 1 1 5 5 5 5 5 3 0 0 5 5 5 58 14 27 7 16
0 0 38 26 27 73 99 97 100 84 95 88 28 73 0 0 0 0 0 13 0 0 0 5 5 5 5 2 5 5 3 8 5 8 58 2 18 100 84 84 56 5 9 3
0 0 0 96 77 6 99 85 89 41 70 100 53 1 0 0 0 0 2 79 97 64 4 0 3 5 4 5 55 5 5 5 5 3 62 94 100 98 100 100 100 5 22 10
0 0 0 22 100 81 41 77 88 38 2 4 0 2 37 0 3 3 23 66 100 100 100 84 81 80 61 96 93 75 90 5 3 11 98 100 100 100 84 63 9 11 5 26
0 0 0 0 20 31 29 99 90 56 4 2 0 85 100 14 32 69 68 86 70 100 100 100 100 100 100 100 98 99 98 67 82 89 100 100 100 25 100 100 59 4 3 3
0 2 4 6 82 21 7 43 97 67 100 0 89 100 100 100 96 100 100 100 100 93 67 97 100 99 100 100 100 100 100 100 100 100 100 87 75 100 100 100 92 9 5 4
0 0 0 1 6 43 7 95 100 66 59 100 91 100 100 100 100 100 100 83 100 100 100 98 99 100 96 100 100 100 100 100 100 100 100 100 100 95 63 93 100 21 5 0
0 0 0 5 4 1 26 13 96 88 30 67 100 87 100 100 94 93 22 5 34 100 100 37 100 100 52 100 100 100 100 100 100 100 100 100 100 100 100 100 100 100 22 7
0 0 0 18 4 0 17 97 100 100 100 100 95 100 100 90 100 100 83 29 8 80 96 72 100 100 100 100 100 100 100 100 100 100 100 100 100 100 100 100 100 100 69 30
0 0 0 23 63 2 100 70 100 100 100 90 100 89 99 82 49 98 55 54 8 100 100 100 100 100 100 100 100 100 100 100 100 100 100 100 100 100 100 100 100 99 94 100
0 0 0 5 5 4 89 100 100 100 100 90 100 100 100 11 100 100 79 73 82 100 100 100 100 99 100 100 100 100 100 100 100 100 100 100 100 100 100 100 100 100 60 70
4 5 2 5 10 24 100 99 100 100 100 100 100 99 99 66 58 100 100 100 100 100 100 100 100 100 100 100 100 100 100 100 100 100 100 100 100 100 100 100 100 100 62 62
20 34 18 19 83 33 100 100 100 100 100 100 47 11 95 88 100 100 100 100 100 100 100 100 100 100 100 100 100 100 100 100 100 100 100 100 100 100 100 100 100 82 69 72
95 45 91 26 95 64 100 100 100 100 100 100 99 68 100 100 100 100 100 100 100 100 100 100 100 100 100 100 100 100 100 100 100 100 100 100 100 100 100 100 100 96 66 100
100 96 100 93 64 36 11 52 85 96 65 100 85 58 95 100 100 100 100 100 100 100 100 100 100 100 100 100 100 100 100 100 100 100 100 100 100 100 100 100 100 97 90 75
100 100 100 100 100 23 14 5 44 38 38 93 59 57 98 100 100 100 100 100 93 100 100 100 100 91 100 100 100 100 100 100 100 100 100 100 100 100 100 100 98 100 100 100
100 100 100 100 100 78 21 7 8 39 16 60 77 87 100 100 100 100 100 100 100 100 100 100 100 100 100 100 100 100 100 100 100 100 100 100 100 100 100 100 65 69 62 90